Regional Weather Roundup
Issued by NWS

Home | Current Version | Previous Version | Text Only | Print | Product List | Glossary Off
Versions: 1 2 3 4 5 6 7 8 9 10 11 12 13 14 15 16 17 18 19 20 21 22 23 24 25 26 27 28 29 30 31 32 33 34 35 36 37 38 39 40 41 42 43 44 45 46 47 48 49 50

000
ASUS43 KDTX 230901
RWRMI
MICHIGAN HOURLY REGIONAL WEATHER ROUNDUP
NATIONAL WEATHER SERVICE DETROIT/PONTIAC MI
400 AM EST FRI FEB 23 2018

NOTE: "FAIR" INDICATES FEW OR NO CLOUDS BELOW 12,000 FEET WITH NO
SIGNIFICANT WEATHER AND/OR OBSTRUCTION TO VISIBILITY.

MIZ047>049-052>055-059>063-066>070-074>076-081>083-231000-
SOUTHEAST LOWER MICHIGAN

CITY           SKY/WX    TMP DP  RH WIND       PRES   REMARKS
ADRIAN         CLOUDY    32  32 100 SE12      30.32F FOG     WCI  23
ALMA           CLOUDY    32  30  94 E6        30.31F WCI  26
ANN ARBOR      CLOUDY    34  33  96 E7        30.32F FOG     WCI  28
BAD AXE        CLOUDY    32  29  90 SE8       30.34F WCI  25
CARO           CLOUDY    33  31  93 SE6       30.32F WCI  27
DETROIT CITY   CLOUDY    34  31  88 SE12      30.35F WCI  25
DETROIT        DRIZZLE   35  33  92 E7        30.33F FOG     WCI  29
FLINT          CLOUDY    33  32  96 SE7       30.32F WCI  27
GROSSE ILE     CLOUDY    34  33  95 E7        30.33F FOG     WCI  28
HILLSDALE      CLOUDY    32  32 100 E12G21    30.25F FOG     WCI  23
HOWELL         CLOUDY    33  33  99 SE9       30.30F FOG     WCI  25

CITY           SKY/WX    TMP DP  RH WIND       PRES   REMARKS
JACKSON        CLOUDY    34  33  96 E14       30.27F FOG     WCI  25
LAMBERTVILLE   CLOUDY    33  32  96 E7        30.33F FOG     WCI  27
LANSING        CLOUDY    33  32  96 SE10      30.28F FOG     WCI  25
LAPEER         CLOUDY    33  32  96 SE7       30.32F FOG     WCI  27
MASON          CLOUDY    34  31  88 E8        30.27F FOG     WCI  27
MT. CLEMENS    LGT RAIN  34  34 100 E13       30.31F WCI  25
PONTIAC        CLOUDY    32  32 100 SE12      30.31F FOG     WCI  23
PORT HOPE        N/A     32  28  85 SE12      30.33F WCI  23
PORT HURON     CLOUDY    34  30  86 E12       30.35F WCI  25
TRI CITIES     CLOUDY    32  28  85 SE3       30.35S
MIDLAND        CLOUDY    32  29  87 E5        30.33F WCI  27
TROY           CLOUDY    34  32  91 E8        30.35F WCI  28
SAGINAW HB     CLOUDY    32  30  93 CALM      30.34S
$$
MIZ043>046-050>051-056>058-064>065-071>073-077>080-231000-
SOUTHWEST LOWER MICHIGAN

CITY           SKY/WX    TMP DP  RH WIND       PRES   REMARKS
BATTLE CREEK   CLOUDY    35  33  92 SE12      30.25F WCI  27
BENTON HARBOR  CLOUDY    37  33  85 SE13      30.20F WCI  29
BIG RAPIDS     CLOUDY    30  27  88 E8        30.25F FOG     WCI  22
COLDWATER      CLOUDY    35  35 100 SE10      30.25F WCI  27
FREMONT        CLOUDY    31  27  86 SE13G20   30.22F WCI  21
HOLLAND        CLOUDY    37  33  85 SE14      30.22F WCI  28
GRAND RAPIDS   CLOUDY    34  30  85 E10       30.25F WCI  26
IONIA          CLOUDY    33  31  92 E7        30.27F WCI  26
KALAMAZOO      CLOUDY    36  33  89 SE8       30.23F WCI  30
LUDINGTON      CLOUDY    32  30  92 SE12      30.21F WCI  23
MARSHALL       CLOUDY    34  33  97 E9        30.25F WCI  26
MOUNT PLEASANT CLOUDY    32  27  80 E5        30.31F WCI  27
MUSKEGON       CLOUDY    34  28  79 E14       30.21F WCI  25
SOUTH HAVEN    CLOUDY    37  34  88 SE9       30.20F WCI  30
$$
MIZ016>042-231000-
NORTHERN LOWER MICHIGAN

CITY           SKY/WX    TMP DP  RH WIND       PRES   REMARKS
ALPENA         CLOUDY    32  30  92 SE10      30.34F WCI  24
BEAVER ISLAND  CLOUDY    29  22  74 E5        30.29F WCI  24
BELLAIRE       CLOUDY    33  25  75 SE7       30.27F WCI  26
CADILLAC       CLOUDY    29  26  90 SE13      30.22F WCI  19
CHARLEVOIX     CLOUDY    32  20  61 SE10      30.30F WCI  24
FRANKFORT      CLOUDY    35  26  70 SE14G22   30.20F WCI  26
GAYLORD        CLOUDY    28  24  85 SE15      30.25F WCI  16
GRAYLING       CLOUDY    29  25  84 SE13      30.26F WCI  19
HARBOR SPRINGS CLOUDY    29  21  70 E8        30.29F WCI  21
HOUGHTON LAKE  CLOUDY    29  25  85 SE9       30.30F WCI  20
MANISTEE       CLOUDY    33  28  81 SE9       30.21F WCI  25
OSCODA         CLOUDY    32  27  81 SE9       30.35F WCI  24
PELLSTON       CLOUDY    29  22  75 SE8       30.30F WCI  21
ROGERS CITY    CLOUDY    30  26  84 SE7       30.34F WCI  24
TRAVERSE CITY  CLOUDY    34  23  64 S6        30.25F WCI  29
$$
MIZ007>008-015-231000-
EASTERN UPPER MICHIGAN

CITY           SKY/WX    TMP DP  RH WIND       PRES   REMARKS
KINROSS        CLOUDY    25  18  74 SE16      30.32F WCI  12
MACKINAC ISLAN CLOUDY    29  23  78 E12G21    30.29F WCI  20
NEWBERRY       CLOUDY    27  22  84 E9        30.27F WCI  17
S. S. MARIE    CLOUDY    26  12  55 E7        30.32F WCI  18
MUNISING         N/A     26  21  81 SE5       30.22F WCI  20
$$
MIZ004>006-011>014-085-231000-
CENTRAL UPPER MICHIGAN

CITY           SKY/WX    TMP DP  RH WIND       PRES   REMARKS
MANISTIQUE     CLOUDY    27  24  89 E13G20    30.27F WCI  16
ESCANABA       FLURRIES  29  27  92 E10       30.22F WCI  20
MENOMINEE      MIX PCPN  32  30  92 SE13      30.17F WCI  22
$$
MIZ001>003-009>011-084-231000-
WESTERN UPPER MICHIGAN

CITY           SKY/WX    TMP DP  RH WIND       PRES   REMARKS
IRON MOUNTAIN  FRZ RAIN  27  25  92 SE10      30.12F FOG     WCI  17
HOUGHTON       HVY SNOW  27  23  85 E9        30.19F VSB 1/4 WCI  18
COPPER HARBOR    N/A     27  25  92 CALM      30.25F
IRONWOOD       LGT SNOW  24  23  96 E6        30.12F VSB 1   WCI  17
$$

ABBREVIATIONS USED IN REMARKS
   TC - TEMPERATURE IN CELSIUS
  WCI - WIND CHILL INDEX
   HX - HEAT INDEX
  VSB - VISIBILITY





USA.gov is the U.S. government's official web portal to all federal, state and local government web resources and services.